Torna al catalogo

CZ-4C R/B

AttivoSSO
NORAD 39411·ROCKET BODY·🇨🇳 China

Lanciato Nov 20, 2013 da Taiyuan Satellite Launch Center

Loading…

Prossimi Passaggi (prossime 24 ore)

TLE

AggiornatoSource: Space-Track

Epoca: Sep 14, 2026, 06:56 UTC

1 39411U 13065B   26257.28956604 -.00000026  00000-0  36752-4 0  9991
2 39411 100.4175 203.6347 0140232 353.3212   6.6045 13.43555251628555

Traccia CZ-4C R/B in tempo reale con AllMySat

Download on the App Store